sat.trackr.live / text

‹ back to catalog

ONEWEB-0513

NORAD 54131 · 2022-138U

PAYLOAD ACTIVE UNKNOWN

§ Identity

Operator
Country
UK
Launch date
2022-10-22
Launch site
SRILR
Launch vehicle
Mass (kg)
RCS (m²)

Purposes: comms

External: N2YO · Heavens-Above · Gunter

§ Orbital elements

Epoch: 2026-09-19T19:38:52.714752Z

Period
109.07 min
Inclination
87.9107°
Eccentricity
0.0002626
Mean motion
13.20260721 rev/d
Perigee alt
1,181.7 km
Apogee alt
1,185.7 km
Semi-major
7,561.9 km
B*
1.5185e-4
RAAN
286.0465°
Arg perigee
77.4103°
Mean anomaly
282.7324°
Rev number
18,920

§ Raw data

ONEWEB-05131 54131U 22138U   26262.81866568  .00000074  00000+0  15185-3 0  99992 54131  87.9107 286.0465 0002626  77.4103 282.7324 13.20260721189209

JSON: /api/v1/satellites/54131 · /tle

For live sub-satellite position, see the globe view (requires WebGL).

§ Visibility from observer

Set your observer location to see the next 7 days of passes ≥ 10°. The values pass through the URL so the page stays shareable.

No JS? Fill the form by hand. The geolocation button needs JavaScript.